THOR ABLESTAR DEB *, 13502

Orbit data source: Space-Track

THOR ABLESTAR DEB *, 13502 is space debris in LEO originally from a launch on Thu, 29 Jun 1961 UTC launched from the Air Force Eastern Test Range (AFETR). Debris objects in space refer to the collection of defunct objects orbiting the Earth. Examples of debris include non-operational satellites, rocket bodies, and fragments generated from explosions, collisions, or faulty payload assembly.

Loading next visibility...
Identifier
13502, 1961-015KT
Orbit
LEO
Country
Flag of USUS
Related business
Manufacturer
Unknown
Mission
Spacecraft
Bus & Motor
Unknown
Mass
Unknown
Launch date (UTC)
1961-06-29 (65 years ago)
Launch vehicle
Unknown
Launch site
Air Force Eastern Test Range (AFETR)
Object type
Payload
Rocket body
Debris
Shape & HBR
Unknown shape, 0.1 m
Radar Cross Section
Small (<0.1 m²)

Expand to show TLE details & history
Last TLE update: 16 hours ago

TLE from 16 hours ago
0 THOR ABLESTAR DEB *
1 13502U 61015KT  26104.92271433  .00002067  00000-0  17085-2 0  9996
2 13502  66.4458 328.2483 0258236 274.0191 192.9590 13.76625981142062
Epoch: 2026-04-14T22:08Z
TLE epoch observation values (Epoch: 2026-04-14T22:08:42.518Z)
Latitude
61.71466°
Longitude
-80.73066°
Altitude
1,170.901 km
Speed
7.182 km/s
True Right ascension
06h 18m 09s
True Declination
61° 34' 44"
Sunlit
Object was in daylight at epoch
Visualization orbit readout
Latitude
Unknown
Longitude
Unknown
Altitude
Unknown
Speed
Unknown
Apparent Right ascension
Unknown
Apparent Declination
Unknown
Sunlit
N/A
Visualization observer readout
Local Sidereal Time
20:35:39
Azimuth
Unknown
Elevation
Unknown
Doppler factor
Unknown
Orbital elements
Apogee altitude
1,164.189 km
Perigee altitude
784.455 km
Semi-major axis
7,352.459 km
Eccentricity
0.02582
Inclination
66.4458°
RAAN
328.2483°
Arg. of periapsis
274.0191°
True anomaly
192.31567°
Mean anomaly
192.959°
Eccentric anomaly
192.63535°
Mean motion
3.44266 °/min
Orbital period
104.57 mins
BSTAR
0.0017085
Loading maneuver chart data...
Computing Atmospheric mass density...

Documentation

Showing up to 5 results
|